Location: Caltech
(34.1382°N, 118.1253°W)
Time: 06:30:20
(UTC-07:00)

Cosmos 2237 Rocket - Visible Passes

Search period start: 24 October 2014 00:00
Search period end: 02 November 2014 23:00
Orbit: 836 x 850 km, 71.0° (Epoch: 23 October)

Date Brightness Start Highest point End Pass type
(mag) Time Alt. Az. Time Alt. Az. Time Alt. Az.
24 Oct 4.8 03:55:21 10° NNE 03:58:22 15° NE 04:01:22 10° E visible
24 Oct 2.1 05:37:22 10° NNW 05:42:58 71° WSW 05:48:32 10° S visible
24 Oct 2.4 18:40:53 10° S 18:46:23 53° ESE 18:51:53 10° NNE visible
24 Oct 4.6 20:26:49 10° WSW 20:30:45 19° WNW 20:34:42 10° NNW visible
25 Oct 4.9 03:41:51 12° NE 03:43:35 14° NE 03:46:22 10° E visible
25 Oct 2.0 05:23:49 17° NNW 05:28:13 75° WSW 05:33:48 10° SSE visible
25 Oct 2.4 18:26:11 10° S 18:31:38 51° ESE 18:37:06 10° NNE visible
25 Oct 4.6 20:11:54 10° WSW 20:15:58 20° WNW 20:20:03 10° NNW visible
26 Oct 4.9 03:29:27 13° ENE 03:29:27 13° ENE 03:31:20 10° E visible
26 Oct 2.0 05:11:25 41° NNW 05:13:29 79° WSW 05:19:04 10° SSE visible
26 Oct 4.5 19:57:00 10° WSW 20:01:11 21° WNW 20:05:23 10° N visible
27 Oct 2.0 04:58:57 80° SSW 04:58:57 80° SSW 05:04:19 10° SSE visible
27 Oct 4.5 19:42:06 10° WSW 19:46:24 22° WNW 19:50:43 10° N visible
28 Oct 3.2 04:46:23 36° SSE 04:46:23 36° SSE 04:49:35 10° SSE visible
28 Oct 4.5 19:27:13 10° WSW 19:31:38 23° WNW 19:36:03 10° N visible
29 Oct 4.2 04:33:40 17° SSE 04:33:40 17° SSE 04:34:50 10° SSE visible
29 Oct 4.4 19:12:21 10° WSW 19:16:51 24° WNW 19:21:23 10° N visible
30 Oct 4.3 18:57:28 10° WSW 19:02:05 25° WNW 19:06:42 10° N visible
31 Oct 4.3 18:42:37 10° WSW 18:47:18 26° WNW 18:52:01 10° N visible
01 Nov 4.2 18:27:45 10° WSW 18:32:32 28° WNW 18:37:20 10° N visible
02 Nov 4.1 17:12:54 10° WSW 17:17:46 29° WNW 17:22:39 10° N visible
